IR3ZXT Weather Reports


time (UTC)temp
F
wind
direction
speed
knots
gust
knots
rain 1hr
in
rain 24hr
in
rain mn
in
humidity
%
barometer
mb
20260906095952 70 225 5.2 5.2 0.00 0.00 0.00 59 875.0
20260906095452 70 180 0.0 0.0 0.00 0.00 0.00 58 875.1
20260906094952 70 180 0.0 4.3 0.00 0.00 0.00 56 875.0
20260906094452 69 225 0.0 5.2 0.00 0.00 0.00 59 875.0
20260906093952 69 157 0.0 3.5 0.00 0.00 0.00 60 875.1
20260906093452 68 225 5.2 5.2 0.00 0.00 0.00 61 875.1
20260906092952 68 247 0.0 7.8 0.00 0.00 0.00 61 875.2
20260906092452 68 225 0.0 5.2 0.00 0.00 0.00 60 875.1
20260906091952 70 202 0.0 4.3 0.00 0.00 0.00 57 875.2
20260906091452 73 157 0.0 6.1 0.00 0.00 0.00 54 875.2
20260906090952 75 180 0.0 5.2 0.00 0.00 0.00 52 875.2
20260906090452 75 157 0.0 3.5 0.00 0.00 0.00 54 875.1
20260906085952 73 180 0.0 0.0 0.00 0.00 0.00 56 875.1
20260906085452 72 157 0.0 0.9 0.00 0.00 0.00 55 875.1
20260906084952 71 202 0.0 3.5 0.00 0.00 0.00 56 875.1
20260906084452 72 67 0.0 0.0 0.00 0.00 0.00 55 875.0
20260906083952 73 45 0.0 0.0 0.00 0.00 0.00 54 875.1
20260906083532 74 45 0.0 0.0 0.00 0.00 0.00 54 875.1
20260906083452 74 45 0.0 0.0 0.00 0.00 0.00 54 875.1
20260906082952 74 67 0.0 0.0 0.00 0.00 0.00 55 875.1
20260906082452 73 45 0.0 0.0 0.00 0.00 0.00 59 875.0
20260906081952 70 45 0.0 0.0 0.00 0.00 0.00 62 875.0
20260906081452 67 135 0.0 0.0 0.00 0.00 0.00 62 875.0
20260906080952 66 135 0.0 0.0 0.00 0.00 0.00 62 875.0
20260906080452 66 135 0.0 0.0 0.00 0.00 0.00 61 875.0
20260906075952 66 112 0.0 0.0 0.00 0.00 0.00 60 875.0
20260906075452 68 112 0.0 0.0 0.00 0.00 0.00 58 875.0
20260906074952 69 112 0.0 0.0 0.00 0.00 0.00 57 875.0
20260906074452 72 112 0.0 0.0 0.00 0.00 0.00 55 874.9
20260906073952 74 112 0.0 0.0 0.00 0.00 0.00 53 874.8
20260906073452 75 112 0.0 0.0 0.00 0.00 0.00 53 874.8
20260906072952 74 112 0.0 0.0 0.00 0.00 0.00 55 874.7
20260906072452 73 112 0.0 0.0 0.00 0.00 0.00 58 875.0
20260906071952 71 112 0.0 0.0 0.00 0.00 0.00 60 875.0
20260906071452 69 112 0.0 0.0 0.00 0.00 0.00 61 874.9
20260906070952 68 112 0.0 0.0 0.00 0.00 0.00 63 874.9
20260906070452 67 112 0.0 0.0 0.00 0.00 0.00 64 874.8
20260906065952 66 90 0.0 0.0 0.00 0.00 0.00 66 874.8
20260906065452 66 112 0.0 0.0 0.00 0.00 0.00 66 874.7
20260906064952 65 67 0.0 0.0 0.00 0.00 0.00 67 874.8
20260906064452 64 67 0.0 0.0 0.00 0.00 0.00 68 874.8
20260906063952 63 67 0.0 0.0 0.00 0.00 0.00 69 874.8
20260906063452 62 67 0.0 0.0 0.00 0.00 0.00 70 874.7
20260906062952 61 67 0.0 0.0 0.00 0.00 0.00 71 874.8
20260906062452 60 67 0.0 0.0 0.00 0.00 0.00 72 874.6
20260906061952 59 67 0.0 0.0 0.00 0.00 0.00 73 874.7
20260906061452 59 67 0.0 0.0 0.00 0.00 0.00 73 874.6
20260906060952 58 67 0.0 0.0 0.00 0.00 0.00 74 874.6
20260906060452 57 67 0.0 0.0 0.00 0.00 0.00 74 874.6
20260906055952 56 67 0.0 0.0 0.00 0.00 0.00 74 874.5
20260906055452 56 67 0.0 0.0 0.00 0.00 0.00 74 874.5
20260906054952 55 67 0.0 0.0 0.00 0.00 0.00 75 874.4
20260906054452 55 67 0.0 0.0 0.00 0.00 0.00 76 874.4
20260906054024 55 67 0.0 0.0 0.00 0.00 0.00 75 874.3
20260906053952 55 67 0.0 0.0 0.00 0.00 0.00 75 874.3
20260906053452 54 67 0.0 0.0 0.00 0.00 0.00 73 874.4
20260906052952 54 67 0.0 0.0 0.00 0.00 0.00 72 874.3
20260906052452 54 67 0.0 0.0 0.00 0.00 0.00 73 874.2
20260906051952 53 67 0.0 0.0 0.00 0.00 0.00 72 874.3
20260906051452 53 90 0.0 0.0 0.00 0.00 0.00 74 874.1
20260906050952 53 90 0.0 0.0 0.00 0.00 0.00 72 874.1
20260906050453 53 67 0.0 0.0 0.00 0.00 0.00 69 874.1
20260906045953 53 67 0.0 0.0 0.00 0.00 0.00 66 873.9
20260906045452 53 67 0.0 0.0 0.00 0.00 0.00 65 873.9
20260906044953 53 67 0.0 0.0 0.00 0.00 0.00 65 873.9
20260906044453 54 67 0.0 0.0 0.00 0.00 0.00 64 873.9
20260906043953 54 67 0.0 0.0 0.00 0.00 0.00 62 873.9
20260906043453 54 67 0.0 0.0 0.00 0.00 0.00 61 873.9
20260906042953 54 67 0.0 0.0 0.00 0.00 0.00 61 873.9
20260906042453 54 67 0.0 0.0 0.00 0.00 0.00 61 873.9
20260906041953 55 67 0.0 0.0 0.00 0.00 0.00 61 873.8
20260906041453 55 67 0.0 0.0 0.00 0.00 0.00 61 873.7
20260906040953 55 90 0.0 0.0 0.00 0.00 0.00 61 873.8
20260906040453 55 112 0.0 0.0 0.00 0.00 0.00 61 873.8
20260906035953 55 225 0.0 0.0 0.00 0.00 0.00 62 873.9
20260906035453 55 225 0.0 0.0 0.00 0.00 0.00 62 873.9
20260906034953 55 247 0.0 0.0 0.00 0.00 0.00 62 873.9
20260906034453 55 247 0.0 0.0 0.00 0.00 0.00 61 873.8
20260906033953 55 247 0.0 0.0 0.00 0.00 0.00 62 873.7
20260906033453 54 247 0.0 0.0 0.00 0.00 0.00 62 873.8
20260906032953 54 247 0.0 0.0 0.00 0.00 0.00 62 873.8
20260906032453 54 247 0.0 0.0 0.00 0.00 0.00 62 873.7
20260906031953 54 247 0.0 0.0 0.00 0.00 0.00 61 873.7
20260906031453 54 247 0.0 0.0 0.00 0.00 0.00 60 873.6
20260906030953 54 247 0.0 0.0 0.00 0.00 0.00 59 873.6
20260906030453 54 247 0.0 0.0 0.00 0.00 0.00 59 873.8
20260906025953 54 247 0.0 0.0 0.00 0.00 0.00 59 873.8
20260906025453 55 247 0.0 0.0 0.00 0.00 0.00 59 873.8
20260906024953 55 247 0.0 0.0 0.00 0.00 0.00 59 873.8
20260906024453 55 247 0.0 0.0 0.00 0.00 0.00 60 873.8
20260906023953 55 247 0.0 0.0 0.00 0.00 0.00 60 873.8
20260906023453 55 247 0.0 0.0 0.00 0.00 0.00 59 873.8
20260906022953 55 247 0.0 0.0 0.00 0.00 0.00 59 873.9
20260906022453 55 247 0.0 0.0 0.00 0.00 0.00 59 873.9
20260906021953 55 247 0.0 0.0 0.00 0.00 0.00 59 873.9
20260906021453 55 247 0.0 0.0 0.00 0.00 0.00 59 873.9
20260906020953 55 247 0.0 0.0 0.00 0.00 0.00 59 873.9
20260906020453 55 247 0.0 0.0 0.00 0.00 0.00 59 873.9
20260906015953 55 247 0.0 0.0 0.00 0.00 0.00 59 873.8
20260906015453 56 247 0.0 0.0 0.00 0.00 0.00 59 873.8
20260906014953 56 247 0.0 0.0 0.00 0.00 0.00 59 873.7
20260906014453 56 247 0.0 0.0 0.00 0.00 0.00 59 873.8
20260906013953 56 247 0.0 0.0 0.00 0.00 0.00 59 873.7
20260906013453 56 247 0.0 0.0 0.00 0.00 0.00 59 873.7
20260906012953 56 247 0.0 0.0 0.00 0.00 0.00 59 873.7
20260906012453 57 247 0.0 0.0 0.00 0.00 0.00 59 873.7
20260906011953 57 247 0.0 0.0 0.00 0.00 0.00 59 873.7
20260906011453 57 247 0.0 0.0 0.00 0.00 0.00 59 873.6
20260906010953 57 247 0.0 0.0 0.00 0.00 0.00 59 873.6
20260906010453 57 247 0.0 0.0 0.00 0.00 0.00 60 873.6
20260906005953 57 247 0.0 0.0 0.00 0.00 0.00 60 873.6
20260906005453 57 247 0.0 0.0 0.00 0.00 0.00 60 873.8
20260906004953 57 247 0.0 0.0 0.00 0.00 0.00 61 873.9
20260906004453 56 247 0.0 0.0 0.00 0.00 0.00 61 873.8
20260906003953 56 247 0.0 0.0 0.00 0.00 0.00 61 873.7
20260906003453 56 247 0.0 0.0 0.00 0.00 0.00 61 873.8
20260906002953 56 247 0.0 0.0 0.00 0.00 0.00 61 873.9
20260906002453 56 247 0.0 0.0 0.00 0.00 0.00 60 873.7
20260906001953 56 247 0.0 0.0 0.00 0.00 0.00 58 873.9
20260906001453 56 247 0.0 0.0 0.00 0.00 0.00 57 873.8
20260906000953 56 247 0.0 0.0 0.00 0.00 0.00 57 873.9
20260906000549 57 247 0.0 0.0 0.00 0.00 0.00 57 873.8
20260906000455 57 247 0.0 0.0 0.00 0.00 0.00 57 873.8
20260905235953 57 247 0.0 0.0 0.00 0.00 0.00 57 873.9
20260905235453 57 247 0.0 0.0 0.00 0.00 0.00 57 873.9
20260905234953 57 247 0.0 0.0 0.00 0.00 0.00 57 873.8
20260905234453 57 247 0.0 0.0 0.00 0.00 0.00 57 873.8
20260905233953 57 247 0.0 0.0 0.00 0.00 0.00 57 873.6
20260905233453 57 247 0.0 0.0 0.00 0.00 0.00 58 873.8
20260905232953 57 247 0.0 0.0 0.00 0.00 0.00 58 873.8
20260905232453 57 247 0.0 0.0 0.00 0.00 0.00 58 873.8
20260905231953 58 247 0.0 0.0 0.00 0.00 0.00 58 873.8
20260905231453 58 247 0.0 0.0 0.00 0.00 0.00 57 873.9
20260905230953 58 247 0.0 0.0 0.00 0.00 0.00 57 873.9
20260905230453 58 247 0.0 0.0 0.00 0.00 0.00 57 873.8
20260905225953 58 247 0.0 0.0 0.00 0.00 0.00 57 873.8
20260905225453 58 247 0.0 0.0 0.00 0.00 0.00 58 873.8
20260905224953 58 247 0.0 0.0 0.00 0.00 0.00 59 873.8
20260905224453 59 247 0.0 0.0 0.00 0.00 0.00 56 873.8
20260905223953 59 247 0.0 0.0 0.00 0.00 0.00 56 873.7
20260905223453 59 247 0.0 0.0 0.00 0.00 0.00 55 873.7
20260905222953 59 247 0.0 0.0 0.00 0.00 0.00 54 873.7
20260905222453 59 247 0.0 0.0 0.00 0.00 0.00 53 873.6
20260905221953 59 247 0.0 0.0 0.00 0.00 0.00 53 873.6
20260905221453 59 247 0.0 0.0 0.00 0.00 0.00 52 873.6
20260905220953 59 247 0.0 0.0 0.00 0.00 0.00 52 873.5
20260905220453 60 247 0.0 0.0 0.00 0.00 0.00 51 873.6
20260905215953 60 247 0.0 4.3 0.00 0.00 0.00 51 873.5
20260905215453 60 247 4.3 4.3 0.00 0.00 0.00 50 873.5
20260905214953 60 247 0.0 1.7 0.00 0.00 0.00 50 873.5
20260905214453 60 247 0.0 7.0 0.00 0.00 0.00 50 873.5
20260905213953 59 247 0.0 3.5 0.00 0.00 0.00 50 873.4
20260905213453 59 247 0.0 5.2 0.00 0.00 0.00 50 873.5
20260905212953 59 270 0.0 0.0 0.00 0.00 0.00 50 873.5
20260905212453 59 292 0.0 0.0 0.00 0.00 0.00 50 873.5
20260905211953 59 292 0.0 0.0 0.00 0.00 0.00 50 873.5
20260905211453 59 292 0.0 0.0 0.00 0.00 0.00 51 873.5
20260905210953 60 292 0.0 0.0 0.00 0.00 0.00 51 873.5
20260905210453 60 292 0.0 0.0 0.00 0.00 0.00 51 873.5
20260905205953 60 315 0.0 0.0 0.00 0.00 0.00 52 873.5
20260905205453 60 315 0.0 0.0 0.00 0.00 0.00 52 873.6
20260905204953 60 315 0.0 0.0 0.00 0.00 0.00 52 873.5
20260905204453 60 337 0.0 0.0 0.00 0.00 0.00 53 873.5
20260905203953 60 337 0.0 0.0 0.00 0.00 0.00 53 873.5
20260905203454 60 337 0.0 0.0 0.00 0.00 0.00 53 873.4
20260905202953 60 337 0.0 0.0 0.00 0.00 0.00 53 873.6
20260905202453 60 337 0.0 0.0 0.00 0.00 0.00 53 873.5
20260905201953 60 337 0.0 4.3 0.00 0.00 0.00 53 873.6
20260905201453 60 337 0.0 0.0 0.00 0.00 0.00 53 873.5
20260905200953 60 337 0.0 0.0 0.00 0.00 0.00 54 873.5
20260905200453 60 337 0.0 0.0 0.00 0.00 0.00 54 873.5
20260905200055 60 337 0.0 0.0 0.00 0.00 0.00 54 873.5
20260905195953 60 337 0.0 0.0 0.00 0.00 0.00 54 873.5
20260905195453 60 337 0.0 0.0 0.00 0.00 0.00 54 873.5
20260905194953 60 337 0.0 0.0 0.00 0.00 0.00 54 873.3
20260905194453 60 337 0.0 3.5 0.00 0.00 0.00 54 873.4
20260905193953 60 337 0.0 2.6 0.00 0.00 0.00 54 873.4
20260905193453 60 315 0.0 0.0 0.00 0.00 0.00 54 873.3
20260905192953 60 315 0.0 0.0 0.00 0.00 0.00 55 873.3
20260905192453 60 315 0.0 0.0 0.00 0.00 0.00 55 873.3
20260905191954 60 315 0.0 0.0 0.00 0.00 0.00 55 873.3
20260905191534 61 315 0.0 2.6 0.00 0.00 0.00 55 873.2
20260905191453 61 315 0.0 2.6 0.00 0.00 0.00 55 873.2
20260905190953 61 315 0.0 0.0 0.00 0.00 0.00 55 873.1
20260905190453 61 315 0.0 0.0 0.00 0.00 0.00 55 873.1
20260905185954 61 337 0.0 0.0 0.00 0.00 0.00 54 872.9
20260905185453 61 337 0.0 6.1 0.00 0.00 0.00 54 872.8
20260905184954 61 337 0.0 5.2 0.00 0.00 0.00 54 872.7
20260905184454 61 315 0.0 0.0 0.00 0.00 0.00 53 872.7
20260905184030 61 292 0.0 0.0 0.00 0.00 0.00 53 872.7
20260905183954 61 292 0.0 0.0 0.00 0.00 0.00 53 872.7
20260905183454 61 292 0.0 0.0 0.00 0.00 0.00 53 872.6
20260905182954 62 292 0.0 0.0 0.00 0.00 0.00 53 872.7
20260905182454 62 292 0.0 0.0 0.00 0.00 0.00 53 872.6
20260905181954 62 270 0.0 0.0 0.00 0.00 0.00 53 872.6
20260905181454 62 270 0.0 0.0 0.00 0.00 0.00 54 872.6
20260905181054 62 270 0.0 0.0 0.00 0.00 0.00 54 872.5
20260905180954 62 270 0.0 0.0 0.00 0.00 0.00 54 872.5
20260905180454 62 270 0.0 3.5 0.00 0.00 0.00 54 872.5
20260905175954 62 270 1.7 5.2 0.00 0.00 0.00 55 872.3
20260905175454 62 270 0.0 10.4 0.00 0.00 0.00 55 872.4
20260905174954 62 270 6.1 6.1 0.00 0.00 0.00 59 872.2
20260905174531 62 247 0.0 4.3 0.00 0.00 0.00 59 872.2
20260905174454 62 247 0.0 4.3 0.00 0.00 0.00 59 872.2
20260905173954 63 270 0.0 5.2 0.00 0.00 0.00 59 872.2
20260905173454 63 270 3.5 5.2 0.00 0.00 0.00 61 872.2
20260905172954 64 270 1.7 5.2 0.00 0.00 0.00 58 872.2
20260905172454 65 247 0.0 0.0 0.00 0.00 0.00 58 872.1
20260905171954 66 270 0.0 0.9 0.00 0.00 0.00 57 872.0
20260905171454 66 292 0.0 4.3 0.00 0.00 0.00 51 871.9
20260905170954 66 270 0.9 4.3 0.00 0.00 0.00 53 871.9
20260905170454 66 247 0.0 4.3 0.00 0.00 0.00 55 871.9
20260905165954 66 247 0.0 7.0 0.00 0.00 0.00 57 872.0
20260905165454 66 247 2.6 5.2 0.00 0.00 0.00 60 871.9
20260905164954 66 247 0.0 8.7 0.00 0.00 0.00 59 871.8
20260905164454 66 247 0.0 6.1 0.00 0.00 0.00 65 871.6
20260905163954 66 247 0.0 5.2 0.00 0.00 0.00 56 871.6
20260905163525 65 247 4.3 9.6 0.00 0.00 0.00 59 871.6
20260905163454 65 247 4.3 9.6 0.00 0.00 0.00 59 871.6
20260905162954 65 247 4.3 5.2 0.00 0.00 0.00 66 871.6
20260905162454 65 247 0.0 4.3 0.00 0.00 0.00 66 871.6
20260905161954 64 247 0.0 6.1 0.00 0.00 0.00 67 871.6
20260905161454 64 247 4.3 6.1 0.00 0.00 0.00 65 871.6
20260905160954 64 202 0.0 0.0 0.00 0.00 0.00 64 871.6
20260905160454 64 202 0.0 0.9 0.00 0.00 0.00 64 871.5
20260905155954 64 225 0.0 0.0 0.00 0.00 0.00 64 871.5
20260905155454 65 225 0.0 3.5 0.00 0.00 0.00 64 871.4
20260905154954 65 225 1.7 4.3 0.00 0.00 0.00 65 871.3
20260905154454 66 225 0.0 3.5 0.00 0.00 0.00 65 871.3
20260905153954 66 202 0.0 0.0 0.00 0.00 0.00 62 871.2
20260905153454 66 202 0.0 5.2 0.00 0.00 0.00 65 871.3
20260905152954 66 202 0.0 0.9 0.00 0.00 0.00 63 871.4
20260905152454 67 202 0.0 5.2 0.00 0.00 0.00 63 871.3
20260905151954 68 247 0.9 3.5 0.00 0.00 0.00 63 871.4
20260905151454 68 202 0.0 5.2 0.00 0.00 0.00 60 871.5
20260905150954 68 157 0.0 0.9 0.00 0.00 0.00 59 871.4
20260905150454 68 225 0.0 0.0 0.00 0.00 0.00 57 871.2
20260905150027 68 225 0.0 0.0 0.00 0.00 0.00 57 871.3
20260905145954 68 225 0.0 0.0 0.00 0.00 0.00 57 871.3
20260905145454 68 225 0.0 4.3 0.00 0.00 0.00 57 871.2
20260905144954 68 225 0.0 1.7 0.00 0.00 0.00 56 871.3
20260905144454 68 247 1.7 5.2 0.00 0.00 0.00 55 871.2
20260905143954 68 247 4.3 8.7 0.00 0.00 0.00 56 871.3
20260905143454 68 225 0.0 6.1 0.00 0.00 0.00 56 871.3
20260905142954 68 225 0.0 4.3 0.00 0.00 0.00 58 871.1
20260905142454 68 270 0.0 5.2 0.00 0.00 0.00 56 871.1
20260905141954 67 225 3.5 3.5 0.00 0.00 0.00 57 871.2
20260905141525 67 225 0.0 3.5 0.00 0.00 0.00 55 871.2
20260905141454 67 225 0.0 3.5 0.00 0.00 0.00 55 871.2
20260905140954 67 225 1.7 5.2 0.00 0.00 0.00 56 871.1
20260905140546 68 225 0.0 4.3 0.00 0.00 0.00 57 871.2
20260905140454 68 225 0.0 4.3 0.00 0.00 0.00 57 871.2
20260905135954 68 225 0.0 7.0 0.00 0.00 0.00 56 871.2
20260905135454 69 247 0.0 6.1 0.00 0.00 0.00 56 871.2
20260905135138 69 202 0.0 7.0 0.00 0.00 0.00 52 871.2
20260905134954 69 202 0.0 7.0 0.00 0.00 0.00 52 871.2
20260905134454 69 202 7.0 7.0 0.00 0.00 0.00 55 871.1
20260905133954 70 247 0.0 7.0 0.00 0.00 0.00 56 871.3
20260905133454 70 225 0.0 3.5 0.00 0.00 0.00 56 871.2
20260905132954 70 157 0.0 3.5 0.00 0.00 0.00 55 871.2
20260905132454 70 180 0.0 7.8 0.00 0.00 0.00 53 871.2
20260905131954 70 225 7.8 9.6 0.00 0.00 0.00 52 871.1
20260905131454 71 225 9.6 9.6 0.00 0.00 0.00 51 871.2
20260905131044 71 247 3.5 9.6 0.00 0.00 0.00 52 871.1
20260905130954 71 247 3.5 9.6 0.00 0.00 0.00 52 871.1
20260905130454 70 247 9.6 11.3 0.00 0.00 0.00 51 871.1
20260905125954 70 247 0.0 7.8 0.00 0.00 0.00 50 871.2
20260905125454 70 270 5.2 11.3 0.00 0.00 0.00 54 871.3
20260905124954 70 225 0.0 6.1 0.00 0.00 0.00 50 871.4
20260905124454 69 247 6.1 7.8 0.00 0.00 0.00 50 871.3
20260905123954 69 247 6.1 9.6 0.00 0.00 0.00 44 871.4
20260905123454 69 247 8.7 10.4 0.00 0.00 0.00 46 871.3
20260905123028 69 270 0.0 9.6 0.00 0.00 0.00 48 871.4
20260905122954 69 270 0.0 9.6 0.00 0.00 0.00 48 871.4
20260905122454 69 270 2.6 8.7 0.00 0.00 0.00 55 871.4
20260905121954 69 270 1.7 8.7 0.00 0.00 0.00 52 871.4
20260905121454 69 247 0.0 9.6 0.00 0.00 0.00 47 871.4
20260905120954 69 247 7.8 10.4 0.00 0.00 0.00 47 871.3
20260905120526 69 292 0.0 10.4 0.00 0.00 0.00 45 871.2
20260905120454 69 292 0.0 10.4 0.00 0.00 0.00 45 871.2
20260905115954 70 202 0.0 13.9 0.00 0.00 0.00 46 871.3
20260905115454 70 270 5.2 7.0 0.00 0.00 0.00 53 871.3
20260905114954 69 225 0.0 12.2 0.00 0.00 0.00 49 871.5
20260905114454 70 225 0.0 10.4 0.00 0.00 0.00 46 871.2
20260905113954 70 247 7.8 17.4 0.00 0.00 0.00 46 871.3
20260905113454 71 270 0.0 12.2 0.00 0.00 0.00 48 871.3
20260905112954 72 292 0.0 8.7 0.00 0.00 0.00 48 871.4
20260905112454 72 180 0.0 14.8 0.00 0.00 0.00 44 871.4
20260905111954 72 270 7.8 12.2 0.00 0.00 0.00 48 871.2
20260905111454 71 247 5.2 11.3 0.00 0.00 0.00 47 871.2
20260905111032 72 247 11.3 13.9 0.00 0.00 0.00 43 871.3
20260905110954 72 247 11.3 13.9 0.00 0.00 0.00 43 871.3
20260905110541 72 247 7.0 7.8 0.00 0.00 0.00 45 871.3
20260905110454 72 247 7.0 7.8 0.00 0.00 0.00 45 871.3
20260905105954 72 292 0.0 7.8 0.00 0.00 0.00 45 871.3
20260905105454 72 270 0.0 8.7 0.00 0.00 0.00 43 871.2
20260905104954 72 247 4.3 6.1 0.00 0.00 0.00 45 871.3
20260905104454 71 270 1.7 4.3 0.00 0.00 0.00 45 871.2
20260905103954 71 225 2.6 9.6 0.00 0.00 0.00 44 871.3
20260905103455 70 270 0.0 6.1 0.00 0.00 0.00 45 871.2
20260905102954 70 247 3.5 3.5 0.00 0.00 0.00 49 871.2
20260905102454 70 270 0.0 5.2 0.00 0.00 0.00 45 871.3
20260905101955 70 270 0.0 4.3 0.00 0.00 0.00 48 871.2
20260905101454 71 247 4.3 6.1 0.00 0.00 0.00 48 871.2
20260905100954 71 225 0.0 0.0 0.00 0.00 0.00 48 871.3
20260905100454 71 225 0.0 0.0 0.00 0.00 0.00 46 871.2